DW1824 Weather Reports


time (UTC)temp
C
wind
direction
speed
KPH
gust
KPH
rain 1hr
cm
rain 24hr
cm
rain mn
cm
humidity
%
barometer
mb
20260503033341 16 319 0.0 0.0 0.00 0.00 0.00 89 1021.0
20260503032350 16 319 0.0 0.0 0.00 0.00 0.00 89 1020.8
20260503031336 16 319 0.0 0.0 0.00 0.00 0.00 88 1020.6
20260503030324 16 319 0.0 0.0 0.00 0.00 0.00 87 1020.6
20260503025332 17 319 0.0 0.0 0.00 0.00 0.00 86 1020.5
20260503024324 17 319 0.0 0.0 0.00 0.00 0.00 86 1020.4
20260503023331 17 319 0.0 0.0 0.00 0.00 0.00 85 1020.5
20260503022334 17 319 0.0 0.0 0.00 0.00 0.00 84 1020.4
20260503021401 17 319 0.0 0.0 0.00 0.00 0.00 83 1020.2
20260503020403 18 319 0.0 0.0 0.00 0.00 0.00 82 1020.1
20260503015328 18 319 0.0 0.0 0.00 0.10 0.00 80 1019.9
20260503014334 19 319 0.0 0.0 0.00 0.10 0.00 76 1019.9
20260503013358 20 319 0.0 0.0 0.00 0.10 0.00 74 1019.8
20260503012403 21 319 0.0 0.0 0.00 0.10 0.00 70 1019.8
20260503011326 21 319 0.0 0.0 0.00 0.10 0.00 64 1019.6
20260503010333 22 319 0.0 0.0 0.00 0.10 0.00 60 1019.4
20260503005357 22 319 0.0 0.0 0.00 0.46 0.00 59 1019.3
20260503004324 23 319 0.0 0.0 0.00 0.46 0.00 55 1019.3
20260503003328 24 318 0.0 3.2 0.00 0.46 0.00 53 1019.1
20260503002332 25 324 1.6 6.4 0.00 0.46 0.00 50 1019.1
20260503000336 26 340 1.6 12.9 0.00 0.46 0.00 47 1018.9
20260502235325 26 335 4.8 16.1 0.00 1.09 0.00 46 1018.9
20260502234327 26 350 3.2 17.7 0.00 1.09 0.00 48 1018.8
20260502233330 25 350 4.8 14.5 0.00 1.09 0.00 46 1018.8
20260502232335 25 306 4.8 16.1 0.00 1.09 0.00 49 1018.8
20260502231359 24 40 3.2 16.1 0.00 1.09 0.00 49 1018.9
20260502230337 24 340 4.8 16.1 0.00 1.09 0.00 52 1018.7
20260502225341 24 345 4.8 16.1 0.00 1.32 0.00 50 1018.7
20260502224325 24 334 8.0 20.9 0.00 1.32 0.00 49 1018.5
20260502223331 24 51 6.4 19.3 0.00 1.32 0.00 50 1018.2
20260502222336 24 15 6.4 19.3 0.00 1.32 0.00 49 1018.6
20260502221402 24 300 3.2 17.7 0.00 1.32 0.00 49 1018.7
20260502220347 24 31 3.2 19.3 0.00 1.32 0.00 52 1018.7
20260502215333 24 294 6.4 19.3 0.00 1.45 0.00 52 1018.9
20260502214336 24 305 9.7 24.1 0.00 1.45 0.00 50 1018.8
20260502213342 24 325 6.4 17.7 0.00 1.45 0.00 53 1019.1
20260502212345 24 340 8.0 19.3 0.00 1.45 0.00 53 1019.1
20260502211349 23 7 8.0 16.1 0.00 1.45 0.00 52 1019.2
20260502210355 23 340 8.0 20.9 0.00 1.45 0.00 53 1019.4
20260502205343 23 45 6.4 20.9 0.00 2.03 0.00 51 1019.4
20260502204331 23 25 9.7 22.5 0.00 2.03 0.00 51 1019.5
20260502203335 23 48 4.8 16.1 0.00 2.03 0.00 53 1019.7
20260502202340 23 340 9.7 20.9 0.00 2.03 0.00 52 1019.9
20260502201344 23 43 11.3 19.3 0.00 2.03 0.00 51 1019.9
20260502200348 23 331 6.4 17.7 0.00 2.03 0.00 53 1020.1
20260502195332 23 16 8.0 20.9 0.00 2.31 0.00 51 1020.3
20260502194334 23 340 8.0 19.3 0.00 2.31 0.00 52 1020.4
20260502193337 23 43 6.4 14.5 0.00 2.31 0.00 54 1020.4
20260502192402 23 354 4.8 16.1 0.00 2.31 0.00 52 1020.6
20260502191326 23 324 4.8 24.1 0.00 2.31 0.00 53 1020.6
20260502190329 23 327 8.0 19.3 0.00 2.31 0.00 51 1020.7
20260502185332 23 355 3.2 22.5 0.00 2.64 0.00 56 1020.9
20260502184333 23 17 9.7 19.3 0.00 2.64 0.00 55 1020.9
20260502183338 23 350 6.4 22.5 0.00 2.64 0.00 53 1021.1
20260502182326 23 340 9.7 17.7 0.00 2.64 0.00 54 1021.2
20260502181331 23 359 6.4 24.1 0.00 2.64 0.00 52 1021.2
20260502180335 23 323 3.2 16.1 0.00 2.64 0.00 55 1021.5
20260502170402 21 49 8.0 22.5 0.00 2.90 0.00 60 1021.9
20260502164329 21 317 1.6 22.5 0.00 3.20 0.00 64 1022.0
20260502163333 20 333 8.0 20.9 0.00 3.20 0.00 66 1021.9
20260502162343 20 11 11.3 19.3 0.00 3.20 0.00 66 1022.0
20260502161327 19 40 6.4 17.7 0.00 3.20 0.00 69 1021.9
20260502160331 18 302 11.3 20.9 0.00 3.20 0.00 72 1021.9
20260502152330 17 308 6.4 17.7 0.00 3.81 0.00 76 1021.6
20260502151335 17 27 4.8 25.7 0.00 3.81 0.00 76 1021.5
20260502150359 17 350 9.7 20.9 0.00 3.81 0.00 77 1021.5
20260502130343 12 322 6.4 16.1 0.00 4.85 0.00 93 1020.3
20260502123328 12 280 4.8 14.5 0.00 5.38 0.00 93 1019.8
20260502122334 11 265 3.2 9.7 0.00 5.38 0.00 93 1019.7
20260502121341 11 317 3.2 8.0 0.00 5.38 0.00 93 1019.5
20260502120329 11 299 3.2 8.0 0.00 5.38 0.00 93 1019.5
20260502115332 11 322 4.8 12.9 0.00 5.74 0.00 93 1019.4
20260502114338 11 316 3.2 6.4 0.00 5.74 0.00 93 1019.4
20260502113325 11 350 1.6 8.0 0.00 5.74 0.00 93 1019.3
20260502112330 11 331 1.6 8.0 0.00 5.74 0.00 93 1019.1
20260502111356 11 4 3.2 9.7 0.00 5.74 0.00 93 1018.8
20260502110338 11 325 4.8 9.7 0.00 5.74 0.00 93 1018.7
20260502105327 11 323 3.2 11.3 0.00 6.07 0.00 93 1018.5
20260502104332 12 345 4.8 12.9 0.00 6.07 0.00 93 1018.6
20260502103337 12 354 3.2 12.9 0.00 6.07 0.00 93 1018.4
20260502102340 12 12 3.2 12.9 0.00 6.07 0.00 93 1018.5
20260502101344 12 2 4.8 14.5 0.00 6.07 0.00 93 1018.3
20260502091343 12 345 3.2 8.0 0.00 6.25 0.00 91 1017.1
20260502090329 13 40 4.8 9.7 0.00 6.25 0.00 91 1017.0
20260502071329 13 19 6.4 17.7 0.00 8.41 0.00 92 1016.6
20260502070334 13 64 3.2 11.3 0.00 8.41 0.00 92 1016.7
20260502065336 13 39 6.4 16.1 0.00 8.46 0.00 92 1016.7
20260502064402 13 358 3.2 16.1 0.00 8.46 0.00 93 1016.7
20260502063331 13 340 6.4 16.1 0.00 8.46 0.00 93 1016.8
20260502062336 13 15 6.4 20.9 0.00 8.46 0.00 93 1016.9
20260502061339 13 8 3.2 16.1 0.00 8.46 0.00 93 1016.7
20260502060325 13 38 9.7 17.7 0.00 8.46 0.00 93 1016.7
20260502055328 13 13 8.0 17.7 0.00 8.53 0.00 93 1016.7
20260502054333 13 306 9.7 25.7 0.00 8.53 0.00 93 1016.8
20260502053338 13 340 8.0 24.1 0.00 8.53 0.00 93 1016.7
20260502052343 13 21 8.0 25.7 0.00 8.53 0.00 94 1016.7
20260502051327 13 345 6.4 22.5 0.00 8.53 0.00 94 1016.7
20260502050331 13 20 8.0 22.5 0.00 8.53 0.00 94 1016.5
20260502045357 13 17 9.7 17.7 0.00 9.02 8.53 94 1016.4
20260502044325 13 350 8.0 17.7 0.00 9.02 8.53 94 1016.3
20260502043329 13 38 8.0 22.5 0.00 9.02 8.53 94 1016.2
20260502042334 13 2 9.7 20.9 0.00 9.02 8.53 94 1016.2
20260502041343 13 360 6.4 24.1 0.00 9.02 8.53 94 1016.3
20260502040330 13 356 6.4 17.7 0.00 9.02 8.53 94 1016.4
20260502035336 13 10 4.8 20.9 0.00 9.02 8.53 94 1016.2
20260502034324 13 360 6.4 22.5 0.00 9.02 8.53 94 1016.0